User: anonymous   Login
Location: Grantsboro
(35.1404°N, 76.8424°W)
Time: 21:10:21
(UTC+00:00)
Language:

STARLINK-24 - Orbit

View from above orbital plane
View from above orbital plane
View from above satellite
View from above satellite

Ground track
Ground track

The orbit data is extracted from the following two-line orbital elements,

1 44238U 19029D   20087.83594128 +.00003119 +00000-0 +19330-3 0  9992
2 44238 052.9971 219.8727 0001745 108.2375 251.8806 15.12628753045138
Epoch (UTC): 27 March 2020 20:03:45
Eccentricity: 0.0001745
inclination: 52.9971°
perigee height: 527 km
apogee height: 529 km
right ascension of ascending node: 219.8727°
argument of perigee: 108.2375°
revolutions per day: 15.12628753
mean anomaly at epoch: 251.8806°
orbit number at epoch: 4513

The dashed part of the orbit path shows where the satellite is in the earth's shadow,  

DLR